Weather History for Abingdon, VA

Change the Weather History Date:

Tuesday, March 25, 2014

  Actual Average (KTRI) Record (KTRI)
Temperature  
Mean Temperature 32 °F 49 °F  
Max Temperature 38 °F 62 °F 85 °F (1954)
Min Temperature 27 °F 37 °F 12 °F (1940)
Degree Days  
Heating Degree Days 32 16  
Month to date heating degree days 478  
Since 1 July heating degree days 3860  
Cooling Degree Days 0 0  
Month to date cooling degree days 0  
Year to date cooling degree days 0  
Moisture  
Dew Point 23 °F    
Average Humidity 67    
Maximum Humidity 95    
Minimum Humidity 28    
Precipitation  
Precipitation 0.03 in 0.11 in 0.93 in (1965)
Month to date precipitation 2.75  
Year to date precipitation 9.57  
Snow  
Snow 0.00 in 0.00 in - ()
Month to date snowfall 1.2  
Since 1 July snowfall 12.0  
Snow Depth -    
Sea Level Pressure  
Sea Level Pressure 29.92 in    
Wind  
Wind Speed 6 mph (NNW)    
Max Wind Speed 26 mph    
Max Gust Speed 36 mph    
Visibility 8 miles    
Events Snow    
T = Trace of Precipitation, MM = Missing Value Source: NWS Daily Summary

Daily Weather History Graph

Daily Weather History Graph

Search for Another Location

Airport:

Trip Planner

Search our weather history database for the weather conditions in past years. The results will help you decide how hot, cold, wet, or windy it might be!

Date:

Astronomy

Mar. 25, 2014 Rise Set
Actual Time 7:24 AM EDT 7:44 PM EDT
Civil Twilight 6:58 AM EDT 8:10 PM EDT
Nautical Twilight 6:28 AM EDT 8:40 PM EDT
Astronomical Twilight 5:57 AM EDT 9:11 PM EDT
Moon 3:37 AM EDT (3/25) 2:21 PM EDT (3/25)
Length of Visible Light 13h 11m
Length of Day
12h 19m
Waning Crescent, 32% of the Moon is Illuminated
Mar 25
Waning Crescent
Mar 30
New
Apr 7
First Quarter
Apr 15
Full
Apr 22
Last Quarter

Hourly Weather History & Observations

Time (EDT) Temp. Windchill Dew Point Humidity Pressure Visibility Wind Dir Wind Speed Gust Speed Precip Events Conditions
12:15 AM 38.3 °F 33.9 °F 7.9 °F 28% 29.99 in 10.0 mi ENE 5.8 mph - N/A   Mostly Cloudy
12:35 AM 38.3 °F 34.8 °F 8.1 °F 29% 29.99 in 10.0 mi East 4.6 mph - N/A   Overcast
12:55 AM 37.6 °F 33.1 °F 8.4 °F 30% 29.99 in 10.0 mi East 5.8 mph - N/A   Overcast
1:15 AM 37.6 °F 34.0 °F 10.6 °F 33% 29.98 in 10.0 mi East 4.6 mph - N/A   Overcast
1:35 AM 36.7 °F - 13.1 °F 38% 29.97 in 10.0 mi Calm Calm - N/A   Overcast
1:55 AM 37.6 °F 35.1 °F 11.8 °F 35% 29.96 in 10.0 mi East 3.5 mph - N/A   Overcast
2:15 AM 37.0 °F - 11.7 °F 35% 29.95 in 10.0 mi Calm Calm - N/A   Overcast
2:35 AM 36.7 °F 34.1 °F 14.7 °F 41% 29.94 in 10.0 mi ESE 3.5 mph - N/A   Overcast
2:55 AM 37.0 °F - 11.7 °F 35% 29.93 in 10.0 mi Calm Calm - N/A   Overcast
3:15 AM 37.2 °F 32.6 °F 11.8 °F 35% 29.91 in 10.0 mi ENE 5.8 mph - N/A   Overcast
3:35 AM 37.4 °F 33.8 °F 10.4 °F 33% 29.91 in 10.0 mi NE 4.6 mph - N/A   Overcast
3:55 AM 37.4 °F 34.9 °F 11.1 °F 34% 29.91 in 10.0 mi South 3.5 mph - N/A   Overcast
4:15 AM 37.4 °F 32.1 °F 11.5 °F 34% 29.89 in 10.0 mi East 6.9 mph - N/A   Overcast
4:35 AM 37.4 °F - 13.5 °F 38% 29.89 in 10.0 mi Calm Calm - N/A   Overcast
4:55 AM 37.0 °F 32.4 °F 14.2 °F 39% 29.89 in 10.0 mi SW 5.8 mph - N/A   Overcast
5:15 AM 34.2 °F 29.0 °F 26.4 °F 73% 29.89 in 4.0 mi SSW 5.8 mph - N/A Snow Light Snow
5:35 AM 32.9 °F 29.8 °F 29.8 °F 88% 29.89 in 2.0 mi West 3.5 mph - N/A Snow Light Snow
5:55 AM 32.5 °F 28.1 °F 30.6 °F 92% 29.89 in 2.0 mi WNW 4.6 mph - N/A Snow Light Snow
6:15 AM 32.7 °F 29.6 °F 31.1 °F 94% 29.89 in 1.8 mi NW 3.5 mph - 0.01 in Snow Light Snow
6:35 AM 32.7 °F 25.7 °F 31.5 °F 95% 29.90 in 1.5 mi NW 8.1 mph - 0.02 in Snow Light Snow
6:55 AM 32.0 °F 28.7 °F 28.2 °F 86% 29.90 in 2.5 mi NW 3.5 mph - 0.02 in Snow Light Snow
7:15 AM 32.0 °F - 27.9 °F 85% 29.89 in 7.0 mi Calm Calm - N/A Snow Light Snow
7:35 AM 32.0 °F - 28.4 °F 87% 29.90 in 10.0 mi Calm Calm - N/A   Overcast
7:55 AM 32.4 °F 26.9 °F 26.4 °F 79% 29.89 in 10.0 mi NW 5.8 mph - N/A   Overcast
8:15 AM 32.2 °F 28.9 °F 25.5 °F 76% 29.89 in 10.0 mi NW 3.5 mph - N/A   Overcast
8:35 AM 32.4 °F - 25.2 °F 75% 29.89 in 10.0 mi Calm Calm - N/A   Overcast
8:55 AM 32.5 °F - 25.7 °F 76% 29.88 in 10.0 mi Calm Calm - N/A   Overcast
9:15 AM 33.3 °F 30.2 °F 28.4 °F 82% 29.89 in 10.0 mi South 3.5 mph - N/A   Overcast
9:35 AM 33.4 °F - 28.8 °F 83% 29.88 in 10.0 mi Calm Calm - N/A   Overcast
9:55 AM 34.0 °F - 29.1 °F 82% 29.88 in 10.0 mi Calm Calm - N/A   Overcast
10:15 AM 34.7 °F - 28.2 °F 77% 29.88 in 10.0 mi Calm Calm - N/A   Overcast
10:35 AM 36.0 °F - 28.4 °F 74% 29.88 in 10.0 mi Calm Calm - N/A   Overcast
10:55 AM 36.5 °F - 27.5 °F 70% 29.88 in 10.0 mi Calm Calm - N/A   Overcast
11:15 AM 36.5 °F 33.9 °F 26.6 °F 67% 29.88 in 10.0 mi WNW 3.5 mph - N/A Snow Light Snow
11:35 AM 37.2 °F 31.2 °F 26.4 °F 65% 29.88 in 10.0 mi WNW 8.1 mph - N/A   Overcast
11:55 AM 36.9 °F 31.4 °F 26.1 °F 65% 29.87 in 10.0 mi WNW 6.9 mph - N/A   Overcast
12:15 PM 38.3 °F 31.9 °F 25.5 °F 60% 29.86 in 10.0 mi North 9.2 mph - N/A   Overcast
12:35 PM 36.5 °F 29.7 °F 25.9 °F 65% 29.86 in 4.0 mi North 9.2 mph - N/A Snow Light Snow
12:55 PM 35.8 °F 30.9 °F 30.0 °F 80% 29.85 in 1.8 mi NW 5.8 mph - N/A Snow Light Snow
1:15 PM 35.1 °F 27.9 °F 30.2 °F 82% 29.85 in 1.2 mi NNW 9.2 mph - N/A Snow Light Snow
1:35 PM 34.5 °F 30.4 °F 31.8 °F 90% 29.85 in 0.8 mi WNW 4.6 mph - N/A Snow Light Snow
2:15 PM 33.8 °F 23.9 °F 30.2 °F 87% 29.84 in 1.0 mi NNW 15.0 mph 21.9 mph 0.01 in Snow Light Snow
2:35 PM 32.9 °F 24.1 °F 30.2 °F 90% 29.85 in 1.5 mi NNW 11.5 mph 17.3 mph 0.01 in Snow Light Snow
2:55 PM 33.3 °F 24.1 °F 28.2 °F 82% 29.84 in 4.0 mi NW 12.7 mph 16.1 mph 0.01 in Snow Light Snow
3:15 PM 35.1 °F 28.6 °F 28.4 °F 77% 29.83 in 10.0 mi NNW 8.1 mph 16.1 mph N/A   Overcast
3:35 PM 32.9 °F 25.9 °F 29.3 °F 87% 29.85 in 0.2 mi NW 8.1 mph 24.2 mph N/A Snow Light Snow
3:55 PM 34.7 °F 24.7 °F 28.0 °F 77% 29.85 in 7.0 mi NNW 16.1 mph 21.9 mph N/A   Overcast
4:15 PM 32.5 °F 23.7 °F 27.7 °F 82% 29.85 in 1.2 mi NNW 11.5 mph 21.9 mph N/A Snow Light Snow
4:35 PM 34.9 °F 25.7 °F 27.3 °F 74% 29.86 in 10.0 mi NNW 13.8 mph 23.0 mph N/A   Overcast
4:55 PM 35.1 °F 22.5 °F 25.2 °F 67% 29.87 in 5.0 mi NNW 26.5 mph 35.7 mph N/A Snow Light Snow
5:15 PM 34.0 °F 23.8 °F 25.0 °F 70% 29.87 in 10.0 mi NNW 16.1 mph 24.2 mph N/A   Overcast
5:35 PM 34.0 °F 25.0 °F 24.8 °F 69% 29.89 in 7.0 mi North 12.7 mph 20.7 mph N/A   Overcast
5:55 PM 32.5 °F 22.7 °F 25.7 °F 76% 29.89 in 7.0 mi NNW 13.8 mph 25.3 mph N/A   Overcast
6:15 PM 32.7 °F 21.4 °F 24.8 °F 73% 29.90 in 5.0 mi NNW 18.4 mph 23.0 mph N/A Snow Light Snow
6:35 PM 33.1 °F 27.7 °F 24.1 °F 70% 29.91 in 7.0 mi NNW 5.8 mph 19.6 mph N/A Snow Light Snow
6:55 PM 33.8 °F 23.5 °F 21.9 °F 62% 29.92 in 10.0 mi NNW 16.1 mph 23.0 mph N/A   Mostly Cloudy
7:15 PM 33.1 °F 22.2 °F 20.8 °F 61% 29.93 in 10.0 mi North 17.3 mph 26.5 mph N/A   Overcast
7:35 PM 32.0 °F 22.5 °F 21.0 °F 64% 29.94 in 10.0 mi North 12.7 mph 24.2 mph N/A   Overcast
7:55 PM 32.0 °F 22.5 °F 21.6 °F 65% 29.95 in 10.0 mi NNW 12.7 mph 20.7 mph N/A   Mostly Cloudy
8:15 PM 29.3 °F 20.2 °F 25.5 °F 86% 29.96 in 1.8 mi North 10.4 mph 25.3 mph N/A Snow Light Snow
8:35 PM 30.2 °F 17.1 °F 23.7 °F 77% 29.96 in 7.0 mi NNW 21.9 mph 31.1 mph N/A Snow Light Snow
8:55 PM 30.2 °F 19.3 °F 21.0 °F 69% 29.98 in 10.0 mi North 15.0 mph 33.4 mph N/A   Mostly Cloudy
9:15 PM 30.0 °F 17.9 °F 19.4 °F 65% 29.99 in 10.0 mi NNW 18.4 mph 27.6 mph N/A   Overcast
9:35 PM 29.8 °F 20.3 °F 19.8 °F 66% 30.00 in 10.0 mi North 11.5 mph 21.9 mph N/A   Overcast
9:55 PM 29.7 °F 19.1 °F 19.2 °F 65% 30.01 in 10.0 mi North 13.8 mph 25.3 mph N/A   Overcast
10:15 PM 29.3 °F 17.3 °F 19.2 °F 66% 30.02 in 10.0 mi NNW 17.3 mph 27.6 mph N/A Snow Light Snow
10:35 PM 28.4 °F 16.6 °F 21.0 °F 74% 30.04 in 4.0 mi NNW 16.1 mph 25.3 mph N/A Snow Light Snow
10:55 PM 28.0 °F 18.1 °F 21.0 °F 75% 30.05 in 3.0 mi NNW 11.5 mph 23.0 mph N/A Snow Light Snow
11:15 PM 27.5 °F 16.3 °F 18.9 °F 70% 30.05 in 10.0 mi NNW 13.8 mph 20.7 mph N/A   Mostly Cloudy
11:35 PM 28.4 °F 18.0 °F 17.6 °F 64% 30.06 in 10.0 mi North 12.7 mph 18.4 mph N/A   Mostly Cloudy
11:55 PM 28.2 °F 17.7 °F 15.1 °F 58% 30.06 in 10.0 mi NNW 12.7 mph 19.6 mph N/A   Mostly Cloudy